Wind_Speed
45 46 47 47 47 48 48 48 47 47 48 47 46 45 45 46 45 45 45 45 45 44 45 45 45 45 45 45 45 45 45 46 46 44 45 46 46 46 46 47 47 48 47
42 43 44 45 47 48 49 49 49 48 47 47 47 46 46 46 47 47 46 46 46 46 46 46 46 46 46 46 47 47 47 47 47 46 46 47 47 47 47 48 49 49 49
41 41 44 45 45 46 48 48 48 49 48 47 47 46 46 46 46 46 47 47 47 47 47 46 46 46 46 47 47 47 48 47 47 47 47 48 48 48 48 49 50 50 50
42 41 42 44 45 45 45 47 48 47 47 47 47 47 46 46 46 45 46 47 47 47 47 47 47 48 47 47 47 47 48 48 48 48 48 48 49 49 49 50 50 49 49
41 41 42 44 44 45 45 47 48 48 48 47 48 47 46 46 45 46 47 47 47 48 48 48 48 48 48 48 48 49 48 48 48 48 48 49 49 49 50 50 49 48 48
38 39 41 42 42 43 45 45 46 46 46 47 48 48 47 47 46 46 47 47 47 47 48 48 48 47 47 48 48 48 48 48 48 48 48 49 49 50 50 49 49 49 48
38 39 39 39 40 41 44 45 46 46 46 46 47 47 47 47 47 47 47 46 47 48 48 47 46 45 45 46 46 47 47 47 47 48 49 50 50 49 49 48 48 49 49
37 38 39 38 38 39 41 43 44 46 47 47 47 46 46 46 47 48 48 47 47 47 46 45 45 45 45 46 46 47 46 46 47 48 49 49 49 48 48 48 48 48 49
36 37 37 37 37 38 41 42 43 45 46 46 46 47 47 47 47 47 47 47 47 46 45 45 45 46 46 46 46 46 47 47 47 48 48 48 47 47 47 47 48 48 48
36 37 38 38 37 37 39 41 42 44 45 45 45 46 47 47 47 47 46 46 46 45 45 45 45 46 46 46 46 46 46 46 46 46 47 47 46 46 46 47 47 47 46
36 37 38 38 39 39 39 39 40 41 42 43 43 43 44 45 45 45 45 45 44 44 44 44 44 44 44 45 45 44 45 45 45 45 45 45 45 45 46 46 46 45 45
34 35 36 37 37 37 37 38 38 39 39 40 41 42 43 43 43 43 43 43 43 42 42 42 43 43 43 43 43 43 44 44 44 43 43 44 44 44 44 44 44 44 45
32 33 34 35 35 36 36 37 37 38 37 38 39 40 41 41 41 41 41 41 42 42 42 42 42 42 43 43 44 44 44 43 43 43 44 44 44 43 43 43 43 44 45
33 33 33 33 34 34 34 35 36 37 37 37 38 38 39 40 40 41 41 41 42 42 42 42 42 43 44 44 44 43 43 43 43 44 44 44 43 43 42 43 43 44 44
33 34 33 34 34 34 34 34 35 36 37 38 38 39 38 39 39 40 41 41 41 41 41 42 43 43 43 43 43 43 43 43 43 43 42 42 43 43 43 44 44 44 43
33 33 33 34 34 34 34 35 35 35 36 37 37 37 38 38 39 39 40 40 40 40 40 41 41 42 42 43 43 43 43 43 43 42 42 42 43 43 43 43 43 42 41
31 31 32 33 34 34 34 34 35 35 36 36 36 36 36 35 36 36 37 38 39 39 40 40 40 41 41 41 42 43 42 42 42 42 42 42 42 41 41 41 40 39 38
30 30 31 32 33 34 34 35 34 35 35 35 35 35 35 35 35 35 36 36 37 38 38 39 39 40 40 40 40 40 40 40 40 40 41 40 40 39 39 38 37 36 35
30 30 30 31 32 32 33 33 33 34 34 34 34 34 34 34 34 35 35 35 36 37 37 37 38 38 38 38 37 37 38 38 38 39 39 38 38 37 37 36 35 34 33
29 29 29 30 30 30 31 32 32 33 33 33 33 34 34 34 34 34 34 34 35 35 35 36 36 36 36 36 36 36 36 36 37 37 36 36 36 35 35 34 33 33 32
28 29 29 29 29 30 30 31 31 32 32 33 33 33 33 33 33 33 33 34 34 35 35 35 35 35 35 35 35 35 35 35 34 34 34 34 34 34 33 33 32 31 31
27 28 28 28 28 28 29 30 30 31 31 31 31 32 32 32 32 33 33 34 35 36 35 35 35 34 34 34 33 33 33 32 32 32 32 33 33 32 31 31 31 30 30
25 26 26 26 26 27 28 28 28 29 29 30 30 31 31 32 32 33 34 34 35 35 35 34 33 33 32 32 32 31 31 31 31 31 31 31 31 30 30 30 29 29 28
24 24 24 24 25 25 26 26 27 27 28 29 29 31 32 32 33 33 33 33 33 33 32 32 31 32 32 31 31 31 30 30 30 30 29 28 28 28 28 28 28 28 27
23 23 24 24 24 24 25 25 26 26 27 28 28 29 30 31 32 33 33 32 32 31 30 30 30 30 31 31 31 30 30 30 29 28 28 27 27 27 26 26 26 26 25
21 22 23 24 24 24 24 25 25 25 26 26 27 28 29 29 29 30 30 30 30 30 29 29 29 29 29 29 29 28 28 27 27 27 26 26 25 25 24 24 24 23 23
Wind_Direction
252 252 251 250 250 250 250 251 253 253 254 255 257 258 259 261 261 262 264 266 267 268 269 271 274 276 277 278 279 280 281 283 284 286 286 288 289 290 290 291 291 292 293
252 252 251 251 251 250 250 251 253 253 253 254 256 258 260 260 261 262 264 266 267 269 270 272 273 274 277 278 279 279 281 283 284 285 286 287 288 289 290 290 291 292 293
251 251 250 250 250 250 251 251 252 253 254 255 256 259 261 262 263 264 265 266 267 269 270 271 273 274 276 277 278 279 280 282 284 285 286 287 288 289 289 290 291 292 292
250 249 251 251 250 251 251 251 252 253 254 255 257 259 263 264 264 265 266 266 268 269 270 271 273 274 276 276 278 279 280 281 282 283 285 286 287 289 290 290 291 291 291
250 250 251 251 252 252 253 253 252 252 254 256 258 260 263 264 265 267 267 268 270 270 270 272 274 275 275 276 278 279 280 281 282 283 285 286 287 288 289 290 290 290 291
250 251 253 254 255 255 254 253 252 253 254 257 260 262 263 264 266 267 269 270 270 272 272 273 274 276 277 277 278 278 279 280 281 283 285 287 288 289 290 290 290 291 291
253 253 255 257 256 255 255 254 254 255 255 257 261 262 262 264 267 266 268 269 271 272 273 274 274 275 276 276 277 278 279 280 282 284 285 287 288 289 289 290 291 292 292
255 255 256 256 256 256 255 256 256 256 257 258 259 261 263 264 266 267 268 270 271 271 271 272 272 273 275 277 277 278 279 281 283 285 287 288 288 288 288 289 291 292 293
256 256 256 258 258 257 257 258 258 259 260 260 261 262 264 265 266 267 268 270 271 272 272 272 273 273 274 276 277 279 281 282 284 286 287 288 288 287 288 290 292 293 294
257 256 256 257 259 259 258 259 260 261 261 261 262 264 264 265 265 267 268 269 271 271 272 273 274 276 277 277 279 280 281 282 284 286 287 287 287 288 290 291 293 293 293
259 259 258 257 259 260 260 260 261 262 262 262 263 265 266 266 267 268 269 269 270 272 272 273 274 276 277 278 279 280 282 283 284 285 286 287 288 289 291 292 293 293 294
259 260 259 258 258 260 260 260 261 261 262 263 264 264 266 268 268 268 268 269 269 271 272 273 274 275 276 278 279 281 283 284 285 286 287 288 289 290 291 291 292 293 294
262 261 260 259 260 261 261 261 260 261 262 264 266 266 265 266 267 268 268 268 270 271 273 275 276 276 277 278 279 281 283 284 284 286 287 288 289 289 290 291 292 293 294
262 263 261 260 260 260 260 261 262 262 262 263 266 267 267 268 269 269 269 270 271 272 273 275 277 279 279 280 280 281 282 283 284 286 288 288 289 289 290 291 292 294 295
262 261 260 260 261 262 262 263 264 264 264 265 266 268 269 270 271 270 270 271 272 273 275 277 278 279 280 281 281 281 282 284 285 286 287 288 288 288 289 290 292 293 294
263 261 259 260 261 262 263 264 265 264 265 266 268 269 270 270 271 271 271 272 274 275 276 278 278 279 279 280 280 281 282 283 284 285 286 287 288 288 289 290 291 292 293
264 262 260 260 261 262 263 264 264 264 265 266 268 269 270 271 271 272 273 274 275 276 277 278 278 278 279 280 281 281 281 281 282 283 285 287 288 288 289 290 291 292 293
266 265 264 264 263 264 264 265 265 266 267 268 269 270 270 271 272 273 274 275 275 276 278 278 278 279 280 281 281 281 281 282 282 283 284 285 286 287 289 289 290 291 291
268 268 267 266 265 264 265 266 266 267 268 269 270 271 271 272 272 273 275 276 277 278 279 279 279 280 281 282 282 282 282 283 283 283 284 284 285 286 287 288 289 289 290
268 268 268 268 268 267 267 268 268 269 269 269 270 271 271 272 272 274 275 276 278 279 280 280 280 281 281 282 282 283 283 284 284 283 283 283 284 285 286 287 288 289 290
269 269 269 269 269 269 270 271 271 271 271 271 271 272 272 272 273 274 275 277 279 281 282 281 281 281 281 282 283 283 284 284 284 283 283 283 283 284 285 286 287 288 289
270 270 270 270 270 270 271 273 274 273 272 272 273 273 273 273 273 274 276 278 280 281 282 282 281 281 281 283 284 284 285 284 284 284 284 284 283 283 284 285 287 288 289
273 272 271 271 271 272 273 273 274 275 274 273 273 273 273 274 275 276 277 278 280 280 280 280 280 281 282 283 283 284 285 284 283 284 284 284 283 283 284 285 286 287 289
276 274 273 274 275 275 275 275 276 276 276 275 274 275 275 275 276 276 277 278 279 279 279 279 279 280 281 281 282 283 284 284 284 284 284 284 284 284 284 285 286 286 287
278 277 276 277 277 278 277 277 278 278 278 278 277 277 277 277 277 277 277 278 278 278 278 280 281 281 280 281 282 282 283 284 284 284 284 284 284 285 285 285 285 286 287
280 279 279 280 279 279 279 279 281 282 281 281 280 279 279 279 278 279 279 278 277 278 279 280 280 281 281 281 281 281 282 283 284 284 283 284 285 285 285 286 285 285 287
Height
5666 5669 5671 5674 5677 5680 5684 5688 5691 5694 5697 5700 5702 5704 5706 5708 5710 5711 5712 5714 5715 5715 5716 5716 5717 5716 5716 5715 5713 5712 5711 5709 5708 5708 5705 5703 5700 5698 5695 5692 5689 5685 5682
5656 5658 5660 5663 5666 5669 5673 5677 5680 5683 5686 5689 5691 5693 5694 5696 5698 5700 5701 5702 5703 5704 5704 5705 5705 5705 5704 5703 5702 5701 5699 5698 5696 5695 5693 5691 5689 5686 5683 5680 5677 5673 5669
5646 5648 5650 5652 5656 5659 5662 5665 5669 5672 5675 5677 5679 5682 5683 5685 5686 5688 5689 5691 5692 5692 5693 5693 5693 5692 5692 5691 5690 5689 5687 5685 5684 5682 5681 5679 5676 5673 5670 5667 5664 5660 5656
5636 5638 5640 5642 5645 5648 5651 5654 5657 5660 5663 5666 5668 5670 5672 5674 5675 5676 5677 5679 5679 5680 5680 5680 5680 5680 5679 5678 5677 5676 5675 5673 5671 5670 5668 5666 5664 5661 5657 5655 5651 5647 5644
5627 5629 5630 5633 5635 5638 5640 5643 5646 5649 5652 5655 5657 5659 5661 5662 5663 5664 5665 5667 5667 5667 5667 5667 5667 5667 5666 5665 5664 5663 5662 5660 5659 5657 5655 5653 5651 5648 5645 5641 5637 5634 5631
5618 5620 5621 5623 5625 5628 5630 5633 5635 5638 5640 5643 5645 5648 5649 5651 5652 5653 5654 5654 5655 5654 5654 5654 5654 5653 5653 5652 5651 5650 5649 5647 5646 5644 5642 5640 5637 5634 5631 5627 5624 5622 5619
5609 5610 5612 5613 5615 5617 5620 5622 5625 5627 5629 5632 5634 5636 5638 5639 5640 5640 5641 5642 5642 5642 5641 5641 5641 5641 5640 5639 5638 5637 5636 5634 5632 5631 5629 5626 5624 5621 5618 5615 5611 5607 5605
5599 5600 5602 5603 5605 5607 5609 5611 5613 5615 5618 5620 5622 5624 5626 5627 5627 5628 5629 5629 5629 5629 5629 5629 5629 5628 5627 5627 5626 5625 5623 5622 5620 5618 5616 5613 5610 5607 5604 5602 5598 5595 5592
5589 5591 5592 5593 5595 5597 5599 5600 5602 5604 5606 5608 5610 5612 5613 5615 5615 5616 5616 5616 5617 5617 5617 5617 5616 5616 5615 5614 5614 5613 5612 5610 5607 5605 5602 5600 5597 5594 5591 5588 5585 5582 5579
5580 5581 5583 5584 5586 5587 5588 5590 5592 5593 5595 5597 5598 5600 5601 5602 5603 5604 5604 5604 5605 5605 5605 5604 5604 5603 5603 5602 5601 5600 5599 5597 5595 5593 5590 5587 5584 5581 5578 5575 5572 5569 5566
5571 5572 5573 5574 5576 5577 5579 5580 5581 5583 5584 5586 5587 5588 5589 5590 5591 5591 5591 5591 5592 5593 5593 5593 5592 5591 5590 5589 5588 5587 5586 5584 5582 5580 5577 5575 5572 5569 5566 5563 5559 5556 5553
5561 5562 5563 5564 5566 5567 5568 5569 5570 5572 5573 5574 5575 5576 5577 5578 5578 5579 5579 5579 5580 5581 5581 5580 5580 5579 5578 5577 5576 5575 5573 5572 5570 5568 5566 5563 5560 5557 5554 5550 5547 5544 5540
5551 5552 5553 5554 5555 5556 5558 5559 5560 5561 5562 5563 5564 5565 5566 5566 5567 5567 5568 5568 5568 5568 5568 5568 5567 5566 5566 5565 5564 5562 5561 5559 5557 5556 5553 5551 5548 5545 5542 5539 5536 5532 5529
5542 5543 5543 5545 5546 5547 5547 5548 5549 5550 5552 5553 5553 5554 5554 5555 5555 5555 5556 5556 5556 5556 5556 5556 5556 5555 5554 5553 5551 5550 5548 5546 5545 5543 5541 5538 5536 5533 5530 5527 5524 5521 5517
5532 5533 5534 5535 5536 5537 5537 5538 5539 5540 5540 5542 5542 5543 5543 5544 5543 5543 5543 5544 5544 5544 5544 5544 5544 5543 5542 5540 5539 5537 5536 5534 5532 5530 5528 5526 5523 5521 5518 5515 5512 5509 5505
5522 5522 5523 5524 5526 5527 5527 5528 5528 5529 5530 5530 5531 5532 5532 5532 5532 5532 5532 5532 5532 5532 5532 5532 5531 5530 5529 5528 5526 5525 5523 5521 5519 5517 5515 5513 5511 5508 5506 5503 5500 5497 5494
5512 5513 5513 5514 5516 5516 5517 5518 5519 5519 5519 5520 5520 5521 5521 5521 5521 5521 5521 5521 5521 5520 5520 5520 5519 5518 5516 5515 5513 5512 5510 5509 5507 5505 5503 5501 5499 5496 5494 5491 5488 5485 5482
5504 5504 5504 5505 5506 5506 5507 5508 5509 5509 5510 5510 5510 5510 5511 5511 5510 5510 5510 5510 5510 5509 5508 5507 5506 5505 5503 5502 5500 5499 5497 5496 5494 5493 5491 5489 5487 5485 5482 5480 5477 5475 5472
5495 5495 5495 5496 5496 5496 5497 5497 5498 5499 5499 5500 5500 5500 5500 5500 5500 5500 5499 5499 5498 5498 5497 5496 5494 5493 5491 5490 5488 5487 5485 5484 5482 5480 5479 5477 5475 5473 5471 5469 5467 5464 5462
5486 5486 5486 5486 5486 5487 5487 5488 5488 5489 5489 5489 5490 5490 5490 5490 5489 5489 5488 5488 5487 5487 5485 5484 5483 5481 5480 5478 5477 5475 5474 5472 5470 5469 5467 5465 5464 5462 5460 5458 5456 5455 5453
5477 5477 5477 5478 5478 5478 5478 5479 5479 5479 5479 5479 5479 5479 5479 5479 5479 5478 5478 5477 5477 5476 5475 5473 5472 5470 5469 5467 5466 5464 5463 5461 5459 5458 5456 5454 5453 5452 5450 5448 5447 5445 5443
5469 5469 5469 5469 5469 5469 5469 5469 5469 5469 5469 5469 5469 5469 5469 5468 5468 5468 5467 5467 5466 5465 5464 5462 5461 5459 5458 5457 5455 5454 5452 5451 5449 5448 5446 5444 5443 5442 5440 5439 5438 5436 5434
5461 5461 5461 5461 5461 5461 5461 5461 5460 5460 5460 5459 5459 5459 5459 5458 5458 5457 5457 5456 5455 5454 5453 5451 5450 5449 5448 5447 5445 5444 5442 5441 5440 5438 5436 5435 5434 5432 5431 5430 5429 5427 5425
5454 5454 5453 5453 5453 5453 5453 5452 5452 5451 5451 5451 5450 5450 5449 5449 5448 5447 5447 5446 5445 5444 5442 5441 5440 5439 5438 5437 5436 5434 5433 5432 5430 5429 5427 5426 5425 5423 5422 5421 5420 5418 5417
5447 5447 5447 5446 5446 5445 5445 5444 5444 5443 5442 5442 5441 5440 5439 5439 5438 5437 5436 5436 5435 5434 5433 5432 5431 5430 5429 5427 5426 5425 5424 5423 5421 5420 5419 5418 5416 5415 5414 5412 5411 5410 5409
5440 5440 5440 5439 5439 5438 5437 5437 5436 5435 5434 5433 5432 5431 5430 5429 5429 5428 5427 5426 5425 5425 5424 5423 5422 5421 5419 5418 5417 5416 5415 5414 5413 5412 5410 5409 5408 5407 5406 5405 5403 5402 5401